Location: Chimay
(50.0486°N, 4.3171°E)
Time: 21:07:04
(UTC+00:00)

Cosmos 2082 Rocket - Pass Details

Date: 08 August 2020
Orbit: 835 x 852 km, 71.0° (Epoch: 21 September)

Event Time Altitude Azimuth Distance (km) Brightness Sun altitude
Rises 21:46:02 0° 222° (SW) 3,404 5.2 -18.9°
Reaches altitude 10° 21:48:32 10° 227° (SW) 2,470 4.5 -19.1°
Maximum altitude 21:54:06 55° 305° (NW) 1,011 2.9 -19.5°
Drops below altitude 10° 21:59:41 10° 23° (NNE) 2,473 5.1 -19.9°
Sets 22:02:11 0° 28° (NNE) 3,409 5.8 -20.1°
